Waarnemingen

Advertentie
Mijn weer
Barth, Duitsland (10180): temperatuur & dauwpunt: 17.10.2017 02:00:00 - 23.10.2017 02:00:00 (CEST)Barth, Duitsland (10180): temperatuur 5cm & temperatuur -5cm: 17.10.2017 02:00:00 - 23.10.2017 02:00:00 (CEST)Barth, Duitsland (10180): temperatuur -20cm & temperatuur -100cm: 17.10.2017 02:00:00 - 23.10.2017 02:00:00 (CEST)Barth, Duitsland (10180): windsnelheid & windstoten: 17.10.2017 02:00:00 - 23.10.2017 02:00:00 (CEST)Barth, Duitsland (10180): windrichting: 17.10.2017 02:00:00 - 23.10.2017 02:00:00 (CEST)Barth, Duitsland (10180): luchtdruk: 17.10.2017 02:00:00 - 23.10.2017 02:00:00 (CEST)Barth, Duitsland (10180): zicht: 17.10.2017 02:00:00 - 23.10.2017 02:00:00 (CEST)Barth, Duitsland (10180): Zonneschijnduur: 17.10.2017 02:00:00 - 23.10.2017 02:00:00 (CEST)Barth, Duitsland (10180): neerslag: 17.10.2017 02:00:00 - 23.10.2017 02:00:00 (CEST)
Datum & Tijd tt [°C] td [°C] tt 5cm [°C] tt -5cm [°C] tt -20cm [°C] tt -100cm [°C] ff [km/u] ff [kn] fx [km/u] fx [kn] dd ppp [hPa] vv [km] sd [min] rr [mm]
23.10.2017 02:00:00 10,5 9,7 10,0 10,6 11,6 12,7 14 7 20 11 ZW 1010,7 3,3 0 0,1
23.10.2017 01:00:00 10,5 10,0 10,1 10,8 11,7 12,7 10 5 24 13 WZW 1010,5 14 0 2,5
23.10.2017 00:00:00 10,4 9,9 10,1 10,8 11,8 12,7 11 6 16 9 ZW 1010,1 13 0 1,0
22.10.2017 23:00:00 10,1 9,8 10,0 10,9 11,9 12,7 8 5 13 7 Z 1009,8 1,8 0 0,4
22.10.2017 22:00:00 10,0 9,6 9,8 10,9 12,0 12,7 6 4 15 8 Z 1009,8 1,1 0 0,5
22.10.2017 21:00:00 10,2 8,9 9,7 10,9 12,1 12,7 8 5 15 8 Z 1009,9 10 0 0,0
22.10.2017 20:00:00 10,3 8,5 9,8 11,0 12,3 12,7 9 5 18 10 ZZW 1009,8 23 0 0,0
22.10.2017 19:00:00 11,1 8,3 10,4 11,6 12,4 12,7 15 8 21 12 ZZW 1009,4 22 0 0,0
22.10.2017 18:00:00 11,7 9,2 11,0 12,2 12,4 12,7 8 4 12 6 ZZO 1009,1 26 0 0,0
22.10.2017 17:00:00 12,2 9,1 11,6 12,8 12,4 12,7 9 5 19 11 Z 1008,8 30 15 0,0
22.10.2017 16:00:00 12,8 9,0 13,3 13,3 12,2 12,7 9 5 22 12 Z 1009,0 37 6 0,0
22.10.2017 15:00:00 12,9 8,7 13,3 13,9 12,0 12,7 15 8 23 12 ZZW 1009,3 27 20 0,0
22.10.2017 14:00:00 13,2 8,9 15,7 14,0 11,8 12,7 14 7 21 11 WZW 1009,5 12 33 0,0
22.10.2017 13:00:00 12,2 9,7 12,3 12,4 11,7 12,7 10 5 21 12 ZZW 1009,5 26 0 0,0
22.10.2017 12:00:00 11,9 9,5 12,1 12,1 11,6 12,7 13 7 20 11 ZW 1009,8 20 14 0,0
22.10.2017 11:00:00 11,6 9,8 11,3 11,5 11,5 12,7 13 7 20 11 WZW 1009,6 16 1 0,0
22.10.2017 10:00:00 11,0 10,3 10,5 10,8 11,6 12,7 6 4 15 8 ZZW 1009,7 7 0 0,0
22.10.2017 09:00:00 10,9 10,4 10,3 10,7 11,6 12,7 11 6 19 10 ZZW 1009,9 5 0 0,0
22.10.2017 08:00:00 11,0 10,7 10,7 10,9 11,6 12,7 6 4 14 8 Z 1009,6 3,8 0 0,0
22.10.2017 07:00:00 10,8 10,4 10,3 10,8 11,7 12,7 5 3 11 6 ZO 1009,8 4,0 0 0,0
22.10.2017 06:00:00 10,8 10,6 10,2 10,9 11,7 12,7 6 3 12 7 ZZO 1009,9 4,3 0 0,1
22.10.2017 05:00:00 11,0 10,6 10,6 11,0 11,8 12,7 9 5 14 8 Z 1010,4 5 0 0,8
22.10.2017 04:00:00 11,0 10,4 10,7 11,0 11,8 12,7 6 3 16 9 Z 1010,5 7 0 2,5
22.10.2017 03:00:00 10,9 10,2 10,5 11,1 11,9 12,7 10 5 20 11 ZZO 1010,9 2,4 0 0,4
22.10.2017 02:00:00 11,0 9,7 10,4 11,0 12,0 12,7 10 5 18 10 ZZO 1011,1 13 0 0,1
22.10.2017 01:00:00 11,3 9,2 10,4 11,0 12,1 12,7 13 7 22 12 ZO 1011,4 6 0 0,0
22.10.2017 00:00:00 11,4 8,9 10,9 11,1 12,2 12,7 13 7 22 12 ZO 1011,9 17 0 0,0
21.10.2017 23:00:00 11,6 9,1 11,1 11,3 12,3 12,7 12 7 19 10 ZO 1012,4 16 0 0,0
21.10.2017 22:00:00 11,8 9,7 11,2 11,5 12,4 12,7 13 7 18 10 ZO 1012,7 13 0 0,0
21.10.2017 21:00:00 12,0 10,3 11,4 11,7 12,5 12,7 14 7 22 12 ZO 1012,9 11 0 0,0
21.10.2017 20:00:00 12,1 10,6 11,4 12,0 12,6 12,7 13 7 19 10 ZO 1013,1 10 0 0,0
21.10.2017 19:00:00 12,1 10,8 11,3 12,4 12,7 12,7 10 6 15 8 ZO 1013,2 9 0 0,0
21.10.2017 18:00:00 12,4 10,7 11,8 13,0 12,7 12,7 9 5 14 7 ZO 1013,1 10 0 0,0
21.10.2017 17:00:00 12,9 10,7 12,6 13,7 12,6 12,7 9 5 13 7 OZO 1013,3 12 0 0,0
21.10.2017 16:00:00 13,0 10,5 13,6 14,1 12,5 12,7 9 5 12 7 ZO 1013,2 12 0 0,0
21.10.2017 15:00:00 13,0 10,3 13,6 14,5 12,2 12,7 8 4 15 8 Z 1013,2 16 0 0,0
21.10.2017 14:00:00 13,1 9,9 14,2 15,1 11,9 12,7 11 6 17 9 ZZW 1013,4 18 24 0,0
21.10.2017 13:00:00 13,4 10,6 16,2 14,5 11,5 12,7 11 6 17 9 ZZW 1013,5 11 16 0,0
21.10.2017 12:00:00 12,8 10,6 14,0 13,5 11,2 12,7 13 7 17 9 ZZW 1013,8 10 12 0,0
21.10.2017 11:00:00 12,3 10,8 12,8 11,8 11,0 12,7 13 7 19 11 ZW 1013,7 12 41 0,0
21.10.2017 10:00:00 11,7 10,7 11,9 10,5 11,0 12,7 10 6 19 10 ZW 1013,4 10 2 0,0
21.10.2017 09:00:00 10,6 10,1 10,4 9,5 11,0 12,7 9 5 14 8 ZZW 1013,1 8 0 0,0
21.10.2017 08:00:00 9,3 9,1 8,7 8,8 11,2 12,7 5 3 7 4 ZZW 1012,8 4,1 0 0,0
21.10.2017 07:00:00 8,5 8,3 4,2 8,9 11,4 12,7 3 1 9 5 ZZW 1012,6 0,1 0 0,0
21.10.2017 06:00:00 9,7 9,5 8,8 9,3 11,6 12,7 2 1 6 4 ZO 1012,4 3,9 0 0,0
21.10.2017 05:00:00 8,8 8,8 4,2 9,1 11,8 12,7 1 1 14 8 W 1012,3 0,7 0 0,0
21.10.2017 04:00:00 9,1 8,8 6,6 9,6 12,1 12,8 6 3 15 8 ZW 1012,4 2,5 0 0,0
21.10.2017 03:00:00 9,4 9,4 5,3 10,2 12,3 12,8 4 2 12 7 ZZW 1012,1 0,1 0 0,0
21.10.2017 02:00:00 11,2 10,6 9,4 11,1 12,4 12,8 10 5 16 9 ZW 1012,2 4,4 0 0,0
21.10.2017 01:00:00 11,9 11,6 10,6 12,2 12,4 12,8 7 4 9 5 ZW 1011,9 0,8 0 0,2
21.10.2017 00:00:00 12,4 12,1 12,0 12,3 12,5 12,8 3 2 16 9 ZW 1012,3 0,8 0 3,0
20.10.2017 23:00:00 12,8 12,3 12,3 12,3 12,5 12,8 14 7 21 11 WZW 1012,3 1,5 0 0,0
20.10.2017 22:00:00 12,9 12,3 12,1 12,4 12,5 12,8 8 4 18 10 ZO 1011,9 2,5 0 0,9
20.10.2017 21:00:00 13,2 12,5 12,6 12,6 12,6 12,8 12 7 24 13 ZO 1012,1 1,6 0 0,9
20.10.2017 20:00:00 13,2 12,5 12,7 12,7 12,6 12,8 18 10 24 13 OZO 1011,6 1,4 0 0,6
20.10.2017 19:00:00 13,1 12,4 12,5 12,9 12,6 12,8 11 6 17 9 O 1011,4 1,5 0 0,1
20.10.2017 18:00:00 13,3 12,4 12,5 13,2 12,6 12,8 8 4 10 6 O 1011,8 1,9 0 0,2
20.10.2017 17:00:00 14,1 12,4 13,5 13,6 12,5 12,8 4 2 12 7 Z 1012,2 3,1 0 0,0
20.10.2017 16:00:00 14,3 12,4 13,8 13,9 12,4 12,8 9 5 15 8 ZZO 1012,1 3,0 0 0,0
20.10.2017 15:00:00 14,3 12,0 14,5 13,9 12,2 12,8 11 6 19 10 ZZO 1012,5 3,4 0 0,0
20.10.2017 14:00:00 14,1 11,7 14,6 14,0 12,0 12,8 12 6 20 11 ZO 1012,1 3,2 0 0,0
20.10.2017 13:00:00 13,6 11,1 14,2 14,0 11,7 12,8 16 9 26 14 ZZO 1012,3 3,2 50 0,0
20.10.2017 12:00:00 13,2 10,9 14,8 13,1 11,5 12,8 17 9 26 14 ZZO 1012,6 2,6 22 0,0
20.10.2017 11:00:00 12,0 10,8 12,6 11,9 11,4 12,8 14 8 28 15 ZZO 1012,7 1,9 0 0,0
20.10.2017 10:00:00 11,5 10,7 11,7 11,5 11,3 12,8 16 9 26 14 ZO 1012,7 1,6 0 0,0
20.10.2017 09:00:00 11,4 10,7 11,4 11,0 11,3 12,8 16 9 24 13 ZZO 1012,5 1,4 0 0,0
20.10.2017 08:00:00 11,3 10,8 11,1 10,8 11,3 12,8 12 7 22 12 ZZO 1012,7 1,2 0 0,0
20.10.2017 07:00:00 11,2 10,7 11,0 10,7 11,2 12,8 16 9 24 13 ZZO 1012,6 1,2 0 0,0
20.10.2017 06:00:00 11,3 10,8 10,9 10,4 11,3 12,8 13 7 23 13 ZO 1012,6 1,3 0 0,0
20.10.2017 05:00:00 11,1 10,4 10,3 9,9 11,3 12,8 15 8 26 14 OZO 1012,8 1,9 0 0,0
20.10.2017 04:00:00 11,2 10,4 10,0 9,8 11,4 12,8 19 11 26 14 OZO 1012,9 2,3 0 0,0
20.10.2017 03:00:00 10,7 10,0 9,4 9,8 11,6 12,8 16 9 25 13 OZO 1013,4 2,4 0 0,0
20.10.2017 02:00:00 11,0 10,0 9,7 10,0 11,7 12,8 14 8 21 12 OZO 1013,7 3,0 0 0,0
20.10.2017 01:00:00 11,0 9,9 9,5 10,2 11,8 12,8 15 8 20 11 OZO 1014,0 4,4 0 0,0
20.10.2017 00:00:00 11,2 10,1 9,6 10,5 11,9 12,8 15 8 21 11 O 1014,5 6 0 0,0
19.10.2017 23:00:00 11,7 10,7 10,7 10,7 12,0 12,8 14 8 18 10 O 1015,0 7 0 0,0
19.10.2017 22:00:00 11,3 10,4 9,7 11,0 12,2 12,8 13 7 23 12 OZO 1015,1 6 0 0,0
19.10.2017 21:00:00 12,2 10,9 11,4 11,4 12,3 12,8 16 8 25 13 OZO 1015,0 8 0 0,0
19.10.2017 20:00:00 11,8 10,9 11,1 11,2 12,4 12,8 16 8 25 14 OZO 1015,0 6 0 0,0
19.10.2017 19:00:00 11,6 10,5 10,4 11,6 12,5 12,8 18 10 29 16 O 1015,0 6 0 0,0
19.10.2017 18:00:00 12,0 10,7 11,3 12,3 12,6 12,8 22 12 34 18 O 1014,9 6 0 0,0
19.10.2017 17:00:00 12,8 10,8 12,4 13,1 12,5 12,8 21 11 27 15 O 1015,2 8 0 0,0
19.10.2017 16:00:00 13,8 11,0 14,7 13,9 12,4 12,8 17 9 30 16 O 1015,5 9 38 0,0
19.10.2017 15:00:00 14,3 11,3 15,8 14,2 12,2 12,8 20 11 29 16 O 1015,6 12 50 0,0
19.10.2017 14:00:00 13,9 11,0 15,3 14,0 11,9 12,9 16 9 26 14 O 1016,1 17 13 0,0
19.10.2017 13:00:00 13,6 10,7 14,9 13,8 11,6 12,9 21 11 29 15 O 1016,2 12 47 0,0
19.10.2017 12:00:00 13,7 11,1 15,9 13,0 11,3 12,9 18 10 27 15 O 1016,4 13 23 0,0
19.10.2017 11:00:00 12,9 11,2 14,8 12,1 11,2 12,9 16 8 21 12 O 1016,2 10 37 0,0
19.10.2017 10:00:00 11,7 10,6 11,5 10,9 11,1 12,9 14 8 20 11 O 1016,2 12 0 0,0
19.10.2017 09:00:00 11,1 10,3 10,5 10,1 11,1 12,9 9 5 13 7 ONO 1016,3 10 0 0,0
19.10.2017 08:00:00 10,4 9,6 9,2 10,0 11,1 12,9 7 4 13 7 O 1015,9 10 0 0,0
19.10.2017 07:00:00 10,7 9,8 10,1 10,0 11,1 12,9 8 4 14 7 OZO 1015,8 10 0 0,0
19.10.2017 06:00:00 10,5 9,9 10,0 9,6 11,2 12,9 9 5 17 9 OZO 1016,0 8 0 0,0
19.10.2017 05:00:00 10,0 9,9 9,3 9,2 11,3 12,9 5 3 16 9 NO 1015,9 3,9 0 0,0
19.10.2017 04:00:00 8,7 8,7 5,8 8,9 11,5 12,9 8 4 9 5 NO 1016,0 0,8 0 0,0
19.10.2017 03:00:00 8,9 8,9 6,8 9,1 11,7 12,9 9 5 13 7 ZO 1015,9 4,0 0 0,0
19.10.2017 02:00:00 9,4 9,3 5,5 9,6 11,9 12,9 5 3 13 7 O 1016,1 0,2 0 0,0
19.10.2017 01:00:00 9,6 9,4 7,9 9,9 12,1 12,9 12 7 16 9 OZO 1015,9 3,1 0 0,0
19.10.2017 00:00:00 10,6 10,4 8,7 10,3 12,3 12,9 8 5 11 6 NO 1016,1 3,7 0 0,0
18.10.2017 23:00:00 9,5 9,5 7,1 10,4 12,5 12,9 5 3 8 5 NO 1016,0 2,2 0 0,0
18.10.2017 22:00:00 8,4 8,4 6,4 10,8 12,7 12,9 3 1 6 3 ZZO 1015,9 3,8 0 0,0
18.10.2017 21:00:00 9,3 9,1 7,0 11,2 12,9 12,9 3 2 8 4 O 1015,8 2,2 0 0,0
18.10.2017 20:00:00 10,5 10,0 7,8 12,3 13,1 12,9 4 2 7 4 NNO 1015,7 9 0 0,0
18.10.2017 19:00:00 11,0 10,2 9,5 12,9 13,2 12,9 0 0 3 2 N 1015,6 13 0 0,0
18.10.2017 18:00:00 12,4 10,2 10,1 14,0 13,1 12,9 2 1 6 4 N 1015,5 16 23 0,0
18.10.2017 17:00:00 14,5 10,0 15,1 15,1 12,9 12,9 5 3 10 5 WNW 1015,3 23 60 0,0
18.10.2017 16:00:00 15,0 9,7 16,6 15,3 12,7 12,9 6 3 10 5 NW 1015,4 23 40 0,0
18.10.2017 15:00:00 15,0 10,1 16,0 15,4 12,3 12,9 7 4 14 7 W 1015,5 22 25 0,0
18.10.2017 14:00:00 14,6 10,1 15,4 15,3 11,9 12,9 9 5 18 10 WNW 1015,6 19 38 0,0
18.10.2017 13:00:00 15,1 10,8 17,7 15,1 11,4 12,9 8 5 17 9 WZW 1015,9 22 60 0,0
18.10.2017 12:00:00 14,4 10,8 16,2 13,5 11,0 12,9 12 6 18 10 WZW 1016,2 15 60 0,0
18.10.2017 11:00:00 12,8 10,7 14,1 11,5 10,8 12,9 11 6 15 8 WZW 1016,2 10 60 0,0
18.10.2017 10:00:00 11,1 9,8 10,9 9,7 10,8 12,9 10 5 16 8 ZW 1016,0 9 60 0,0
18.10.2017 09:00:00 9,7 8,9 9,2 8,6 11,0 12,9 11 6 17 9 ZW 1015,6 8 22 0,0
18.10.2017 08:00:00 9,1 8,5 7,6 8,4 11,1 12,9 11 6 16 9 ZW 1015,5 7 0 0,0
18.10.2017 07:00:00 9,3 8,6 7,6 8,7 11,3 12,9 10 5 18 10 ZW 1015,3 8 0 0,0
18.10.2017 06:00:00 9,8 9,1 8,2 8,9 11,4 12,9 11 6 17 9 ZW 1015,4 9 0 0,0
18.10.2017 05:00:00 9,4 8,6 6,7 9,1 11,6 12,9 8 5 21 11 WZW 1015,5 9 0 0,0
18.10.2017 04:00:00 10,2 9,1 8,5 9,5 11,7 12,9 11 6 21 11 WZW 1015,7 9 0 0,0
18.10.2017 03:00:00 11,0 9,5 9,3 9,8 11,9 12,9 14 7 22 12 WZW 1015,9 11 0 0,0
18.10.2017 02:00:00 11,3 9,6 9,8 10,0 12,0 12,9 15 8 22 12 WZW 1016,0 13 0 0,0
18.10.2017 01:00:00 11,1 9,2 9,3 10,1 12,2 12,9 12 6 23 12 WZW 1016,4 16 0 0,0
18.10.2017 00:00:00 12,1 9,2 10,5 10,5 12,3 12,9 16 9 27 14 ZW 1016,4 18 0 0,0
17.10.2017 23:00:00 12,5 9,0 10,9 10,8 12,5 12,9 16 9 28 15 WZW 1016,8 19 0 0,0
17.10.2017 22:00:00 12,7 9,1 11,4 10,9 12,6 12,9 13 7 23 12 ZW 1017,0 19 0 0,0
17.10.2017 21:00:00 12,5 8,9 10,7 11,1 12,8 12,9 15 8 21 11 ZW 1016,9 20 0 0,0
17.10.2017 20:00:00 12,9 9,2 11,0 11,5 13,0 12,9 13 7 19 10 ZW 1016,9 17 0 0,0
17.10.2017 19:00:00 13,5 9,5 11,7 12,0 13,1 12,9 13 7 23 13 ZW 1016,8 17 0 0,0
17.10.2017 18:00:00 13,9 10,0 12,3 12,8 13,2 12,9 16 9 25 13 ZW 1016,7 19 0 0,0
17.10.2017 17:00:00 14,8 10,5 13,6 13,8 13,2 12,9 15 8 25 14 ZW 1016,9 19 0 0,0
17.10.2017 16:00:00 15,8 10,8 15,0 14,5 13,0 12,9 16 9 29 15 ZW 1017,4 18 32 0,0
17.10.2017 15:00:00 16,3 11,1 16,3 14,7 12,8 12,9 17 9 32 18 ZW 1017,8 19 60 0,0
17.10.2017 14:00:00 16,3 11,6 16,2 14,3 12,6 12,9 22 12 32 18 ZW 1018,1 16 15 0,0
17.10.2017 13:00:00 16,0 11,5 15,4 13,8 12,4 12,9 18 10 33 18 ZW 1018,6 16 0 0,0
17.10.2017 12:00:00 16,0 11,7 15,2 13,5 12,3 12,9 20 11 28 15 ZW 1018,7 18 0 0,0
17.10.2017 11:00:00 15,7 12,7 14,9 13,1 12,1 12,9 18 10 27 14 ZW 1018,5 12 2 0,0
17.10.2017 10:00:00 15,4 12,9 14,8 12,3 12,0 12,9 18 10 25 14 ZW 1018,8 9 1 0,0
17.10.2017 09:00:00 14,5 12,4 12,8 11,3 12,0 12,9 14 8 22 12 ZW 1018,8 10 0 0,0
17.10.2017 08:00:00 13,6 12,0 11,7 10,9 12,1 12,9 12 6 20 11 ZW 1018,5 9 0 0,0
17.10.2017 07:00:00 14,1 12,2 12,0 11,0 12,1 12,9 14 8 19 10 ZW 1018,2 10 0 0,0
17.10.2017 06:00:00 13,3 12,1 11,7 11,0 12,2 12,9 10 5 18 10 Z 1018,2 7 0 0,0
17.10.2017 05:00:00 13,4 12,6 12,0 10,9 12,2 12,9 9 5 16 8 Z 1018,4 5 0 0,0
17.10.2017 04:00:00 13,3 12,9 12,2 10,6 12,3 12,9 10 6 17 9 Z 1018,9 3,7 0 0,0
17.10.2017 03:00:00 13,0 12,6 12,0 10,7 12,5 12,8 7 4 14 8 ZZO 1019,5 2,0 0 0,0
17.10.2017 02:00:00 11,4 11,4 9,7 10,6 12,6 12,8 7 4 11 6 ZZO 1020,0 0,6 0 0,0

tt = temperatuur
td = dauwpunt
tt 5cm = temperatuur 5cm
tt -5cm = temperatuur -5cm
tt -20cm = temperatuur -20cm
tt -100cm = temperatuur -100cm
ff = windsnelheid
fx = windstoten
dd = windrichting
ppp = luchtdruk
vv = zicht
sd = Zonneschijnduur
rr = neerslag

Weerstations in de omgeving